Flag for Germany Weather past 2 weeks in Hameln, Lower Saxony, Germany

Now
52 °F

Passing clouds.


Feels Like: 49 °F
Forecast: 48 / 61 °F
Wind: 8 mph from South

Location: Bueckeburg

Current Time: May 6, 2015 at 7:27:37 AM

Latest Report: May 6, 2015 at 6:20 AM


Visibility: N/A

Pressure: 29.83 "Hg

Humidity: 77%

Dew point: 45 °F

Location of HamelnLocation

Historic Weather in Hameln — Graph

°F

Hameln temperature yesterday

Maximum temperature yesterday: 77 °F (at 3:04 PM)
Minimum temperature yesterday: 50 °F (at 11:20 PM)
Average temperature yesterday: 65 °F

Past Weeks' High & Low Weather Summary

 TemperatureHumidityPressure
High77 °F (May 5, 3:04 PM)100% (Apr 23, 7:20 AM)30.45 "Hg (Apr 23, 7:20 AM)
Low30 °F (Apr 28, 5:20 AM)28% (Apr 21, 3:20 PM)29.45 "Hg (May 5, 6:20 AM)
Average52 °F71%29.88 "Hg
* Reported Apr 21 6:20 AM — May 6 6:20 AM, Hameln, Weather by CustomWeather, © 2015

Note: Actual official high and low records may vary slightly from our data, if they occured in-between our weather recording intervals... More about our weather records

Advertising

Hameln weather history for previous 24 hours

 ConditionsComfort  
Time TempWeatherWind HumidityBarometerVisibility
6:20 AM
Wed, May 6
52 °FPassing clouds.8 mph77%29.83 "HgN/A
5:20 AM52 °FPassing clouds.8 mph77%29.83 "HgN/A
4:20 AM52 °FPassing clouds.10 mph72%29.83 "HgN/A
3:20 AM52 °FPassing clouds.10 mph67%29.83 "HgN/A
2:20 AM50 °FPassing clouds.9 mph67%29.83 "HgN/A
1:20 AM48 °FPassing clouds.6 mph71%29.83 "HgN/A
12:20 AM48 °FCool.2 mph76%29.83 "HgN/A
11:20 PM
Tue, May 5
50 °FPassing clouds.5 mph71%29.83 "HgN/A
10:20 PM52 °FPassing clouds.6 mph67%29.80 "HgN/A
9:20 PM57 °FSmoke.N/A59%29.77 "HgN/A
8:20 PM61 °FPassing clouds.10 mph59%29.71 "HgN/A
7:20 PM63 °FBroken clouds.22 mph59%29.68 "HgN/A
6:20 PM61 °FPartly sunny.22 mph72%29.65 "HgN/A
5:20 PM66 °FScattered showers. Broken clouds.28 mph64%29.56 "HgN/A
4:51 PM68 °FRain showers. Scattered clouds.36 mph60%29.56 "HgN/A
4:20 PM75 °FScattered clouds.23 mph47%29.50 "HgN/A
3:51 PM73 °FRain showers. Scattered clouds.26 mph50%29.47 "HgN/A
3:20 PM77 °FPassing clouds.24 mph42%29.47 "HgN/A
3:04 PM77 °FScattered clouds.25 mph44%29.47 "HgN/A
2:20 PM75 °FPassing clouds.16 mph61%29.45 "HgN/A
1:20 PM68 °FPassing clouds.17 mph78%29.47 "HgN/A
12:53 PM64 °FSprinkles. Scattered clouds.9 mph88%29.47 "Hg5 mi
12:20 PM68 °FSprinkles. Partly sunny.14 mph73%29.53 "HgN/A
11:20 AM64 °FLight rain. Broken clouds.12 mph83%29.50 "HgN/A
10:20 AM68 °FPartly sunny.16 mph69%29.50 "HgN/A
9:20 AM70 °FPartly sunny.16 mph64%29.47 "HgN/A
8:20 AM66 °FScattered clouds.18 mph73%29.47 "HgN/A
7:20 AM64 °FScattered clouds.17 mph73%29.47 "HgN/A
Weather by CustomWeather, © 2015

See weather overviewHow to use our weather pages